{"data":{"norad_id":54588,"intl_designator":"2022-164A","name":"JIAOTONG VDES","alt_names":[],"object_type":"PAYLOAD","status":"ACTIVE","operator":null,"country":"PRC","launch_date":"2022-12-07","launch_site_code":"JSC","launch_vehicle":null,"mission":null,"orbit_class":"UNKNOWN","rcs_meters":null,"size_class":null,"mass_kg":null,"dimensions":null,"purposes":[],"wikipedia_slug":null,"has_3d_model":false,"image_url":null,"decayed_at":null,"tle_current":{"epoch":"2026-05-25T04:29:57.048576Z","epoch_age_seconds":58910,"freshness":"FRESH","line1":"1 54588U 22164A   26145.18746584  .00000284  00000+0  91546-4 0  9998","line2":"2 54588  98.2426 165.0005 0010733  43.9492 316.2552 14.46054401182751","mean_motion":14.46054401,"eccentricity":0.0010733,"inclination_deg":98.2426,"raan_deg":165.0005,"arg_perigee_deg":43.9492,"mean_anomaly_deg":316.2552,"bstar":9.1546e-5,"rev_number":18275,"period_min":99.581315820773,"perigee_km":730.92619797319,"apogee_km":746.20290952847,"semimajor_km":7116.7015537508,"source":"CELESTRAK","updated_at":"2026-05-25T13:37:58.668882Z"}}}